Weather History for KCWI - March, 2013

Change the Weather History Date:

Wednesday, March 20, 2013

  Actual Average Record
Temperature  
Mean Temperature 17 °F -  
Max Temperature 24 °F 48 °F 82 °F (2012)
Min Temperature 10 °F 30 °F 5 °F (1965)
Degree Days  
Heating Degree Days 48    
Moisture  
Dew Point 6 °F    
Average Humidity 60    
Maximum Humidity 74    
Minimum Humidity 46    
Precipitation  
Precipitation 0.00 in - - ()
Sea Level Pressure  
Sea Level Pressure 30.15 in    
Wind  
Wind Speed 19 mph (NW)    
Max Wind Speed 30 mph    
Max Gust Speed 38 mph    
Visibility 10 miles    
Events      
Averages and records for this station are not official NWS values.
T = Trace of Precipitation, MM = Missing Value Source: NWS Daily Summary

Daily Weather History Graph

Daily Weather History Graph

Search for Another Location

Airport or City:

Trip Planner

Search our weather history database for the weather conditions in past years. The results will help you decide how hot, cold, wet, or windy it might be!

Date:

Astronomy

Mar. 20, 2013 Rise Set
Actual Time 7:04 AM CDT 7:13 PM CDT
Civil Twilight 6:36 AM CDT 7:41 PM CDT
Nautical Twilight 6:03 AM CDT 8:14 PM CDT
Astronomical Twilight 5:30 AM CDT 8:47 PM CDT
Moon 12:44 PM CDT (3/20) 2:48 AM CDT (3/20)
Length of Visible Light 13h 05m
Length of Day
12h 09m
First Quarter, 59% of the Moon is Illuminated
Mar 20
First Quarter
Mar 27
Full
Apr 2
Last Quarter
Apr 10
New
Apr 18
First Quarter

Hourly Weather History & Observations

Time (CDT) Temp. Windchill Dew Point Humidity Pressure Visibility Wind Dir Wind Speed Gust Speed Precip Events Conditions
12:15 AM 21.2 °F 7.3 °F 14.0 °F 74% 30.14 in 10.0 mi NW 16.1 mph 21.9 mph N/A   Clear
12:35 AM 21.2 °F 5.2 °F 12.2 °F 68% 30.14 in 10.0 mi WNW 21.9 mph 26.5 mph N/A   Clear
12:55 AM 21.2 °F 6.4 °F 10.4 °F 63% 30.15 in 10.0 mi WNW 18.4 mph 24.2 mph N/A   Clear
1:15 AM 19.4 °F 3.6 °F 10.4 °F 68% 30.15 in 10.0 mi WNW 19.6 mph 23.0 mph N/A   Clear
1:35 AM 19.4 °F 3.6 °F 10.4 °F 68% 30.15 in 10.0 mi NW 19.6 mph 24.2 mph N/A   Clear
1:55 AM 17.6 °F 1.7 °F 6.8 °F 63% 30.16 in 10.0 mi NW 18.4 mph 27.6 mph N/A   Clear
2:15 AM 17.6 °F 1.7 °F 6.8 °F 63% 30.16 in 10.0 mi NW 18.4 mph - N/A   Clear
2:35 AM 15.8 °F 1.4 °F 6.8 °F 68% 30.17 in 10.0 mi NW 13.8 mph 23.0 mph N/A   Clear
2:55 AM 15.8 °F -1.1 °F 6.8 °F 68% 30.16 in 10.0 mi NW 19.6 mph 24.2 mph N/A   Clear
3:15 AM 14.0 °F -3.0 °F 3.2 °F 62% 30.17 in 10.0 mi NW 18.4 mph 26.5 mph N/A   Clear
3:35 AM 14.0 °F -2.0 °F 3.2 °F 62% 30.17 in 10.0 mi NW 16.1 mph - N/A   Clear
3:55 AM 12.2 °F -5.8 °F 3.2 °F 67% 30.16 in 10.0 mi NW 19.6 mph - N/A   Clear
4:15 AM 12.2 °F -5.3 °F 3.2 °F 67% 30.17 in 10.0 mi NW 18.4 mph 24.2 mph N/A   Clear
4:35 AM 12.2 °F -5.3 °F 3.2 °F 67% 30.17 in 10.0 mi NW 18.4 mph 23.0 mph N/A   Clear
4:55 AM 12.2 °F -3.7 °F 1.4 °F 62% 30.17 in 10.0 mi NW 15.0 mph - N/A   Clear
5:15 AM 12.2 °F -6.3 °F 1.4 °F 62% 30.18 in 10.0 mi NW 20.7 mph 26.5 mph N/A   Clear
5:35 AM 12.2 °F -4.8 °F 1.4 °F 62% 30.18 in 10.0 mi NW 17.3 mph 25.3 mph N/A   Clear
5:55 AM 12.2 °F -4.3 °F 1.4 °F 62% 30.19 in 10.0 mi NW 16.1 mph - N/A   Clear
6:15 AM 10.4 °F -7.7 °F 1.4 °F 67% 30.19 in 10.0 mi NW 18.4 mph 24.2 mph N/A   Clear
6:35 AM 10.4 °F -7.7 °F 1.4 °F 67% 30.19 in 10.0 mi NW 18.4 mph - N/A   Clear
6:55 AM 10.4 °F -6.6 °F 1.4 °F 67% 30.19 in 10.0 mi WNW 16.1 mph - N/A   Clear
7:15 AM 10.4 °F -6.6 °F 1.4 °F 67% 30.20 in 10.0 mi WNW 16.1 mph - N/A   Clear
7:35 AM 10.4 °F -6.0 °F 1.4 °F 67% 30.20 in 10.0 mi WNW 15.0 mph 21.9 mph N/A   Clear
7:55 AM 12.2 °F -4.3 °F 1.4 °F 62% 30.21 in 10.0 mi NW 16.1 mph - N/A   Clear
8:15 AM 12.2 °F -5.3 °F 1.4 °F 62% 30.21 in 10.0 mi WNW 18.4 mph 24.2 mph N/A   Clear
8:35 AM 12.2 °F -6.7 °F 1.4 °F 62% 30.21 in 10.0 mi WNW 21.9 mph 27.6 mph N/A   Clear
8:55 AM 14.0 °F -3.9 °F 1.4 °F 57% 30.21 in 10.0 mi WNW 20.7 mph 28.8 mph N/A   Clear
9:15 AM 14.0 °F -4.7 °F 3.2 °F 62% 30.20 in 10.0 mi WNW 23.0 mph - N/A   Clear
9:35 AM 15.8 °F -2.3 °F 3.2 °F 58% 30.20 in 10.0 mi NW 23.0 mph 27.6 mph N/A   Clear
9:55 AM 15.8 °F -2.7 °F 6.8 °F 68% 30.20 in 10.0 mi WNW 24.2 mph 27.6 mph N/A   Clear
10:15 AM 15.8 °F -3.4 °F 3.2 °F 58% 30.19 in 10.0 mi WNW 26.5 mph 31.1 mph N/A   Clear
10:35 AM 17.6 °F 0.1 °F 5.0 °F 58% 30.20 in 10.0 mi WNW 23.0 mph 29.9 mph N/A   Clear
10:55 AM 17.6 °F 0.5 °F 3.2 °F 53% 30.20 in 10.0 mi NW 21.9 mph 31.1 mph N/A   Clear
11:15 AM 19.4 °F 2.5 °F 5.0 °F 54% 30.20 in 10.0 mi WNW 23.0 mph 31.1 mph N/A   Clear
11:35 AM 19.4 °F 1.8 °F 5.0 °F 54% 30.20 in 10.0 mi WNW 25.3 mph 32.2 mph N/A   Clear
11:55 AM 19.4 °F 1.1 °F 5.0 °F 54% 30.19 in 10.0 mi WNW 27.6 mph 34.5 mph N/A   Partly Cloudy
12:15 PM 19.4 °F 1.4 °F 6.8 °F 58% 30.18 in 10.0 mi NW 26.5 mph 36.8 mph N/A   Partly Cloudy
12:35 PM 21.2 °F 5.2 °F 6.8 °F 54% 30.18 in 10.0 mi WNW 21.9 mph 32.2 mph N/A   Partly Cloudy
12:55 PM 21.2 °F 5.2 °F 8.6 °F 58% 30.17 in 10.0 mi WNW 21.9 mph 29.9 mph N/A   Partly Cloudy
1:15 PM 21.2 °F 4.9 °F 6.8 °F 54% 30.17 in 10.0 mi WNW 23.0 mph 32.2 mph N/A   Partly Cloudy
1:35 PM 21.2 °F 6.4 °F 5.0 °F 50% 30.17 in 10.0 mi WNW 18.4 mph 33.4 mph N/A   Scattered Clouds
1:55 PM 23.0 °F 6.0 °F 8.6 °F 54% 30.15 in 10.0 mi WNW 27.6 mph 32.2 mph N/A   Mostly Cloudy
2:15 PM 21.2 °F 3.5 °F 6.8 °F 54% 30.14 in 10.0 mi WNW 27.6 mph 33.4 mph N/A   Scattered Clouds
2:35 PM 23.0 °F 6.3 °F 8.6 °F 54% 30.13 in 10.0 mi WNW 26.5 mph 32.2 mph N/A   Partly Cloudy
2:55 PM 24.8 °F 8.1 °F 8.6 °F 50% 30.13 in 10.0 mi WNW 28.8 mph 34.5 mph N/A   Scattered Clouds
3:15 PM 24.8 °F 9.3 °F 8.6 °F 50% 30.13 in 10.0 mi WNW 24.2 mph 38.0 mph N/A   Scattered Clouds
3:35 PM 24.8 °F 8.4 °F 6.8 °F 46% 30.12 in 10.0 mi WNW 27.6 mph 35.7 mph N/A   Partly Cloudy
3:55 PM 24.8 °F 8.1 °F 6.8 °F 46% 30.12 in 10.0 mi WNW 28.8 mph 36.8 mph N/A   Clear
4:15 PM 24.8 °F 7.9 °F 6.8 °F 46% 30.12 in 10.0 mi WNW 29.9 mph - N/A   Partly Cloudy
4:35 PM 24.8 °F 8.4 °F 6.8 °F 46% 30.12 in 10.0 mi WNW 27.6 mph 35.7 mph N/A   Partly Cloudy
4:55 PM 24.8 °F 8.1 °F 6.8 °F 46% 30.11 in 10.0 mi WNW 28.8 mph 34.5 mph N/A   Partly Cloudy
5:15 PM 24.8 °F 8.1 °F 6.8 °F 46% 30.11 in 10.0 mi WNW 28.8 mph 35.7 mph N/A   Scattered Clouds
5:35 PM 23.0 °F 6.6 °F 6.8 °F 50% 30.12 in 10.0 mi NW 25.3 mph 32.2 mph N/A   Mostly Cloudy
5:55 PM 23.0 °F 6.6 °F 6.8 °F 50% 30.11 in 10.0 mi WNW 25.3 mph 31.1 mph N/A   Mostly Cloudy
6:15 PM 23.0 °F 8.3 °F 6.8 °F 50% 30.12 in 10.0 mi WNW 19.6 mph 32.2 mph N/A   Partly Cloudy
6:35 PM 23.0 °F 6.6 °F 8.6 °F 54% 30.11 in 10.0 mi WNW 25.3 mph 29.9 mph N/A   Mostly Cloudy
6:55 PM 21.2 °F 5.2 °F 6.8 °F 54% 30.12 in 10.0 mi WNW 21.9 mph 27.6 mph N/A   Scattered Clouds
7:15 PM 21.2 °F 7.3 °F 6.8 °F 54% 30.11 in 10.0 mi WNW 16.1 mph - N/A   Partly Cloudy
7:35 PM 19.4 °F 4.5 °F 8.6 °F 63% 30.11 in 10.0 mi WNW 17.3 mph - N/A   Mostly Cloudy
7:55 PM 19.4 °F 6.0 °F 8.6 °F 63% 30.12 in 10.0 mi NW 13.8 mph - N/A   Partly Cloudy
8:15 PM 19.4 °F 6.0 °F 6.8 °F 58% 30.11 in 10.0 mi NW 13.8 mph - N/A   Clear
8:35 PM 19.4 °F 5.5 °F 6.8 °F 58% 30.12 in 10.0 mi NW 15.0 mph - N/A   Clear
8:55 PM 17.6 °F 6.4 °F 8.6 °F 68% 30.12 in 10.0 mi NW 9.2 mph - N/A   Scattered Clouds
9:15 PM 17.6 °F 5.0 °F 6.8 °F 63% 30.12 in 10.0 mi NW 11.5 mph - N/A   Partly Cloudy
9:35 PM 17.6 °F 4.3 °F 6.8 °F 63% 30.12 in 10.0 mi NW 12.7 mph - N/A   Mostly Cloudy
9:55 PM 17.6 °F 5.0 °F 6.8 °F 63% 30.12 in 10.0 mi NNW 11.5 mph - N/A   Overcast
10:15 PM 17.6 °F 5.7 °F 6.8 °F 63% 30.12 in 10.0 mi NNW 10.4 mph - N/A   Mostly Cloudy
10:35 PM 15.8 °F 5.1 °F 6.8 °F 68% 30.13 in 10.0 mi NNW 8.1 mph - N/A   Clear
10:55 PM 15.8 °F 4.2 °F 6.8 °F 68% 30.13 in 10.0 mi NNW 9.2 mph - N/A   Clear
11:15 PM 15.8 °F 2.7 °F 6.8 °F 68% 30.12 in 10.0 mi NNW 11.5 mph - N/A   Clear
11:35 PM 15.8 °F 3.4 °F 6.8 °F 68% 30.12 in 10.0 mi NNW 10.4 mph - N/A   Clear
11:55 PM 15.8 °F 3.4 °F 5.0 °F 62% 30.12 in 10.0 mi NNW 10.4 mph - N/A   Clear